Location: Fauquembergues
(50.6005°N, 2.0987°E)
Time: 04:13:34
(UTC+00:00)

Cosmos 405 Rocket - Pass Details

Date: 14 July 2020
Orbit: 489 x 555 km, 81.3° (Epoch: 06 August)

Event Time Altitude Azimuth Distance (km) Brightness Sun altitude
Exits shadow 02:28:07 11° 247° (WSW) 1,652 4.7 -10.5°
Maximum altitude 02:30:44 21° 294° (WNW) 1,204 4.4 -10.3°
Drops below altitude 10° 02:33:37 10° 344° (NNW) 1,721 5.9 -10.0°
Sets 02:36:09 0° 1° (N) 2,600 7.2 -9.8°
